Overview Statistics Trail Chart Weather Telemetry Raw packets
 

This is the latest recevied weather packets stored in our database for station/object W5GMO. If no packets are shown the sender has not sent any weather packets the latest 10 day(s).

<< 91 92 93 94 95 96 97 >>
Time Temp. Humidity Pressure Rain* Wind** Luminosity Snow
1787961663 27.78° C 1% 1017.6 hPa 0 mm - 0 W/m² -
1787961357 27.78° C 1% 1017.2 hPa 0 mm - 1 W/m² -
1787961051 28.33° C 1% 1017.1 hPa 0 mm - 3 W/m² -
1787960745 28.33° C 1% 1017.1 hPa 0 mm - 5 W/m² -
1787960445 28.33° C 1% 1017.1 hPa 0 mm - 9 W/m² -
1787960139 28.33° C 1% 1017 hPa 0 mm - 13 W/m² -
1787959839 28.89° C 1% 1017.2 hPa 0 mm - 17 W/m² -
1787959534 28.89° C 1% 1017 hPa 0 mm - 22 W/m² -
1787959234 28.89° C 1% 1017.2 hPa 0 mm - 28 W/m² -
1787958929 29.44° C 1% 1017 hPa 0 mm - 33 W/m² -
1787958624 29.44° C 1% 1017 hPa 0 mm - 39 W/m² -
1787958320 29.44° C 1% 1016.8 hPa 0 mm - 50 W/m² -
1787958016 29.44° C 1% 1017 hPa 0 mm - 53 W/m² -
1787957714 30° C 1% 1016.9 hPa 0 mm - 67 W/m² -
1787957410 30° C 1% 1017 hPa 0 mm - 83 W/m² -
1787957109 30° C 1% 1017.1 hPa 0 mm - 90 W/m² -
1787956809 29.44° C 1% 1017 hPa 0 mm - 103 W/m² -
1787956504 30° C 1% 1016.9 hPa 0 mm - 116 W/m² -
1787956199 30° C 1% 1016.9 hPa 0 mm - 102 W/m² -
1787955898 30° C 1% 1016.8 hPa 0 mm - 103 W/m² -
1787955594 30° C 1% 1017 hPa 0 mm - 105 W/m² -
1787955290 30° C 1% 1016.7 hPa 0 mm - 125 W/m² -
1787954989 30° C 1% 1016.8 hPa 0 mm - 132 W/m² -
1787954685 30° C 1% 1016.9 hPa 0 mm - 134 W/m² -
1787954385 30° C 1% 1017 hPa 0 mm - 126 W/m² -

* Rain latest hour (hover to see other rain measurements)
** Current wind speed in m/s (hover to see current wind gust speed)